• In Uzbekistan
  • List of Countries
  • For 7 days
  • Water Temperature
  • Satellite Maps
  • Weather Map
  • Weather Widgets
  • user-avatar
    Login

    Hourly Weather Smolnik

    Today, 20 February, Wednesday

    Time Temperature Precipitation Wind Pressure Humidity
    00:00 +2°C° 0 mm 2 mps 711 mmHg 88%
    01:00 +2°C° 0 mm 2 mps 710 mmHg 89%
    02:00 +2°C° 0 mm 1 mps 710 mmHg 92%
    03:00 +2°C° 0.2 mm 1 mps 710 mmHg 92%
    04:00 +3°C° 0.2 mm 1 mps 710 mmHg 92%
    05:00 +3°C° 0.2 mm 1 mps 711 mmHg 92%
    06:00 +2°C° 0.2 mm 2 mps 711 mmHg 93%
    07:00 +2°C° 0.2 mm 2 mps 711 mmHg 94%
    08:00 +2°C° 0 mm 2 mps 711 mmHg 95%
    09:00 +2°C° 0 mm 2 mps 711 mmHg 92%
    10:00 +2°C° 0 mm 3 mps 712 mmHg 89%
    11:00 +2°C° 0 mm 3 mps 712 mmHg 85%
    12:00 +1°C° 0.1 mm 4 mps 712 mmHg 83%
    13:00 +3°C° 0.1 mm 4 mps 712 mmHg 80%
    14:00 +3°C° 0.1 mm 4 mps 712 mmHg 77%
    15:00 +1°C° 0.1 mm 4 mps 712 mmHg 78%
    16:00 +2°C° 0.1 mm 3 mps 712 mmHg 78%
    17:00 +2°C° 0.1 mm 3 mps 713 mmHg 78%
    18:00 +1°C° 0 mm 3 mps 713 mmHg 82%
    19:00 +1°C° 0 mm 2 mps 713 mmHg 86%
    20:00 +1°C° 0 mm 1 mps 713 mmHg 90%
    21:00 +1°C° 0.1 mm 1 mps 714 mmHg 90%
    22:00 +2°C° 0.1 mm 1 mps 714 mmHg 90%
    23:00 +2°C° 0.1 mm 1 mps 715 mmHg 91%

    Tomorrow, 21 February, Thursday

    Time Temperature Precipitation Wind Pressure Humidity
    00:00 +1°C° 0 mm 1 mps 715 mmHg 92%
    01:00 +1°C° 0 mm 1 mps 715 mmHg 93%
    02:00 +1°C° 0 mm 1 mps 715 mmHg 94%
    03:00 +1°C° 0 mm 1 mps 715 mmHg 94%
    04:00 0°C° 0 mm 1 mps 715 mmHg 95%
    05:00 0°C° 0 mm 1 mps 715 mmHg 95%
    06:00 0°C° 0 mm 1 mps 715 mmHg 95%
    07:00 0°C° 0 mm 1 mps 716 mmHg 95%
    08:00 0°C° 0 mm 1 mps 716 mmHg 95%
    09:00 -1°C° 0 mm 2 mps 716 mmHg 90%
    10:00 +2°C° 0 mm 2 mps 716 mmHg 84%
    11:00 +2°C° 0 mm 3 mps 717 mmHg 79%
    12:00 +3°C° 0 mm 3 mps 716 mmHg 77%
    13:00 +3°C° 0 mm 3 mps 716 mmHg 76%
    14:00 +4°C° 0 mm 3 mps 716 mmHg 74%
    15:00 +3°C° 0 mm 3 mps 716 mmHg 76%
    16:00 +3°C° 0 mm 3 mps 715 mmHg 77%
    17:00 +3°C° 0 mm 3 mps 715 mmHg 79%
    18:00 +2°C° 0 mm 3 mps 715 mmHg 80%
    19:00 +2°C° 0 mm 3 mps 714 mmHg 81%
    20:00 0°C° 0 mm 4 mps 714 mmHg 82%
    21:00 0°C° 0.2 mm 4 mps 714 mmHg 82%
    22:00 0°C° 0.2 mm 4 mps 713 mmHg 82%
    23:00 0°C° 0.2 mm 4 mps 713 mmHg 83%

    Day after tomorrow, 22 February, Friday

    Time Temperature Precipitation Wind Pressure Humidity
    00:00 0°C° 0.7 mm 4 mps 713 mmHg 85%
    01:00 +1°C° 0.7 mm 3 mps 712 mmHg 88%
    02:00 +1°C° 0.7 mm 3 mps 712 mmHg 91%
    03:00 +1°C° 0.6 mm 3 mps 711 mmHg 92%
    04:00 +1°C° 0.6 mm 3 mps 711 mmHg 93%
    05:00 +2°C° 0.6 mm 2 mps 710 mmHg 95%
    06:00 +2°C° 1 mm 2 mps 710 mmHg 95%
    07:00 +2°C° 1 mm 2 mps 710 mmHg 96%
    08:00 +2°C° 1 mm 2 mps 710 mmHg 96%
    09:00 0°C° 1.5 mm 3 mps 710 mmHg 97%
    10:00 -2°C° 1.5 mm 4 mps 711 mmHg 97%
    11:00 -4°C° 1.5 mm 5 mps 712 mmHg 97%
    12:00 -5°C° 0.3 mm 6 mps 713 mmHg 93%
    13:00 -5°C° 0.3 mm 6 mps 714 mmHg 89%
    14:00 -7°C° 0.3 mm 7 mps 715 mmHg 86%
    15:00 -8°C° 0.1 mm 7 mps 716 mmHg 84%
    16:00 -9°C° 0.1 mm 7 mps 716 mmHg 82%
    17:00 -11°C° 0.1 mm 7 mps 717 mmHg 80%
    18:00 -11°C° 0 mm 7 mps 718 mmHg 80%
    19:00 -12°C° 0 mm 7 mps 718 mmHg 79%
    20:00 -13°C° 0 mm 7 mps 719 mmHg 79%
    21:00 -13°C° 0 mm 7 mps 720 mmHg 77%
    22:00 -12°C° 0 mm 6 mps 720 mmHg 76%
    23:00 -14°C° 0 mm 6 mps 721 mmHg 74%

    23 February, Saturday

    Time Temperature Precipitation Wind Pressure Humidity
    00:00 -14°C° 0 mm 6 mps 721 mmHg 74%
    01:00 -14°C° 0 mm 6 mps 722 mmHg 73%
    02:00 -13°C° 0 mm 5 mps 722 mmHg 73%
    03:00 -13°C° 0 mm 5 mps 722 mmHg 74%
    04:00 -14°C° 0 mm 5 mps 722 mmHg 74%
    05:00 -14°C° 0 mm 5 mps 722 mmHg 75%
    06:00 -14°C° 0 mm 5 mps 723 mmHg 76%
    07:00 -14°C° 0 mm 5 mps 723 mmHg 77%
    08:00 -14°C° 0 mm 5 mps 723 mmHg 78%
    09:00 -13°C° 0 mm 5 mps 724 mmHg 75%
    10:00 -12°C° 0 mm 5 mps 724 mmHg 73%
    11:00 -12°C° 0 mm 5 mps 724 mmHg 71%
    12:00 -11°C° 0 mm 5 mps 724 mmHg 69%
    13:00 -10°C° 0 mm 5 mps 724 mmHg 68%
    14:00 -9°C° 0 mm 4 mps 724 mmHg 66%
    15:00 -9°C° 0 mm 4 mps 724 mmHg 66%
    16:00 -9°C° 0 mm 4 mps 724 mmHg 66%
    17:00 -9°C° 0 mm 4 mps 724 mmHg 66%
    18:00 -9°C° 0 mm 3 mps 724 mmHg 69%
    19:00 -9°C° 0 mm 3 mps 724 mmHg 72%
    20:00 -10°C° 0 mm 3 mps 724 mmHg 74%
    21:00 -10°C° 0 mm 2 mps 724 mmHg 77%
    22:00 -10°C° 0 mm 2 mps 724 mmHg 79%
    23:00 -10°C° 0 mm 2 mps 724 mmHg 81%

    24 February, Sunday

    Time Temperature Precipitation Wind Pressure Humidity
    00:00 -10°C° 0 mm 1 mps 724 mmHg 83%
    01:00 -10°C° 0 mm 1 mps 724 mmHg 84%
    02:00 -10°C° 0 mm 1 mps 724 mmHg 85%
    03:00 -10°C° 0 mm 1 mps 724 mmHg 86%
    04:00 -10°C° 0 mm 1 mps 724 mmHg 86%
    05:00 -10°C° 0 mm 1 mps 723 mmHg 87%
    06:00 -10°C° 0 mm 1 mps 723 mmHg 86%
    07:00 -10°C° 0 mm 1 mps 723 mmHg 86%
    08:00 -10°C° 0 mm 1 mps 723 mmHg 85%
    09:00 -8°C° 0 mm 1 mps 724 mmHg 76%
    10:00 -8°C° 0 mm 2 mps 724 mmHg 66%
    11:00 -6°C° 0 mm 2 mps 724 mmHg 57%
    12:00 -5°C° 0 mm 2 mps 724 mmHg 57%
    13:00 -4°C° 0 mm 2 mps 724 mmHg 56%
    14:00 -3°C° 0 mm 2 mps 724 mmHg 56%
    15:00 -4°C° 0 mm 2 mps 723 mmHg 60%
    16:00 -4°C° 0 mm 2 mps 723 mmHg 63%
    17:00 -4°C° 0 mm 2 mps 723 mmHg 67%
    18:00 -3°C° 0 mm 1 mps 723 mmHg 70%
    19:00 -4°C° 0 mm 1 mps 723 mmHg 74%
    20:00 -6°C° 0 mm 1 mps 723 mmHg 77%
    21:00 -6°C° 0 mm 1 mps 723 mmHg 78%
    22:00 -6°C° 0 mm 1 mps 723 mmHg 78%
    23:00 -6°C° 0 mm 1 mps 723 mmHg 78%

    25 February, Monday

    Time Temperature Precipitation Wind Pressure Humidity
    00:00 -6°C° 0 mm 1 mps 723 mmHg 79%
    01:00 -6°C° 0 mm 1 mps 723 mmHg 79%
    02:00 -6°C° 0 mm 1 mps 723 mmHg 80%
    03:00 -6°C° 0 mm 1 mps 722 mmHg 80%
    04:00 -6°C° 0 mm 1 mps 722 mmHg 80%
    05:00 -6°C° 0 mm 1 mps 722 mmHg 80%
    06:00 -6°C° 0 mm 1 mps 722 mmHg 79%
    07:00 -4°C° 0 mm 1 mps 722 mmHg 78%
    08:00 -3°C° 0 mm 1 mps 721 mmHg 77%
    09:00 -2°C° 0 mm 1 mps 721 mmHg 75%
    10:00 0°C° 0 mm 1 mps 721 mmHg 73%
    11:00 -1°C° 0 mm 2 mps 721 mmHg 71%
    12:00 +1°C° 0 mm 2 mps 721 mmHg 72%
    13:00 +1°C° 0 mm 3 mps 720 mmHg 73%
    14:00 +2°C° 0 mm 3 mps 720 mmHg 74%
    15:00 +1°C° 0 mm 3 mps 720 mmHg 77%
    16:00 +1°C° 0 mm 3 mps 720 mmHg 81%
    17:00 0°C° 0 mm 3 mps 720 mmHg 84%
    18:00 0°C° 0.1 mm 3 mps 720 mmHg 87%
    19:00 -2°C° 0.1 mm 4 mps 720 mmHg 89%
    20:00 -2°C° 0.1 mm 5 mps 720 mmHg 92%
    21:00 -3°C° 0 mm 4 mps 721 mmHg 92%
    22:00 -3°C° 0 mm 4 mps 721 mmHg 92%
    23:00 -3°C° 0 mm 4 mps 721 mmHg 92%
    Show more